WB0YAF-8 Weather Reports


time (UTC)temp
C
wind
direction
speed
KPH
gust
KPH
rain 1hr
cm
rain 24hr
cm
rain mn
cm
humidity
%
barometer
mb
20260507174939 18 135 0.0 0.0 0.00 0.00 0.00 33 1018.8
20260507174439 18 158 0.0 4.8 0.00 0.00 0.00 33 1018.8
20260507173938 18 90 0.0 8.0 0.00 0.00 0.00 33 1018.8
20260507173438 18 180 0.0 0.0 0.00 0.00 0.00 33 1018.8
20260507172938 18 0 0.0 0.0 0.00 0.00 0.00 33 1018.8
20260507172440 18 135 0.0 0.0 0.00 0.00 0.00 33 1018.8
20260507171940 18 135 0.0 0.0 0.00 0.00 0.00 33 1018.8
20260507171440 18 135 0.0 0.0 0.00 0.00 0.00 33 1018.8
20260507170939 18 0 0.0 0.0 0.00 0.00 0.00 33 1018.8
20260507170438 17 180 0.0 0.0 0.00 0.00 0.00 34 1018.8
20260507165938 17 135 0.0 0.0 0.00 0.00 0.00 34 1018.8
20260507165439 17 135 0.0 0.0 0.00 0.00 0.00 34 1018.8
20260507164939 17 0 0.0 0.0 0.00 0.00 0.00 34 1018.8
20260507164439 17 113 0.0 0.0 0.00 0.00 0.00 34 1018.8
20260507163940 17 113 0.0 0.0 0.00 0.00 0.00 34 1018.8
20260507163439 17 90 0.0 0.0 0.00 0.00 0.00 34 1018.8
20260507162939 17 135 0.0 0.0 0.00 0.00 0.00 34 1018.8
20260507162438 16 158 0.0 0.0 0.00 0.00 0.00 34 1018.8
20260507161940 16 158 0.0 0.0 0.00 0.00 0.00 34 1018.8
20260507161440 16 68 0.0 0.0 0.00 0.00 0.00 34 1018.8
20260507160938 15 23 0.0 0.0 0.00 0.00 0.00 35 1018.8
20260507160438 16 23 0.0 4.8 0.00 0.00 0.00 35 1018.8
20260507155938 16 158 0.0 4.8 0.00 0.00 0.00 35 1019.1
20260507155439 15 68 0.0 0.0 0.00 0.00 0.00 35 1019.8
20260507154939 15 158 0.0 4.8 0.00 0.00 0.00 35 1019.8
20260507154439 15 180 0.0 0.0 0.00 0.00 0.00 35 1019.3
20260507153940 15 45 0.0 4.8 0.00 0.00 0.00 35 1018.8
20260507153438 15 180 0.0 0.0 0.00 0.00 0.00 35 1018.8
20260507152938 15 158 0.0 0.0 0.00 0.00 0.00 35 1018.8
20260507152439 15 180 0.0 4.8 0.00 0.00 0.00 35 1018.8
20260507151939 15 23 0.0 4.8 0.00 0.00 0.00 35 1018.8
20260507151439 14 180 0.0 0.0 0.00 0.00 0.00 35 1018.8
20260507150940 14 0 0.0 8.0 0.00 0.00 0.00 35 1018.8
20260507150439 14 225 0.0 0.0 0.00 0.00 0.00 35 1018.8
20260507145939 13 90 0.0 0.0 0.00 0.00 0.00 35 1018.8
20260507145439 13 0 0.0 0.0 0.00 0.00 0.00 35 1018.8
20260507144939 13 90 0.0 8.0 0.00 0.00 0.00 35 1018.8
20260507144439 13 203 0.0 4.8 0.00 0.00 0.00 35 1018.8
20260507143940 13 45 0.0 4.8 0.00 0.00 0.00 35 1018.8
20260507143440 13 180 0.0 4.8 0.00 0.00 0.00 35 1018.8
20260507142940 13 135 0.0 0.0 0.00 0.00 0.00 35 1018.8
20260507142438 13 338 0.0 0.0 0.00 0.00 0.00 35 1018.8
20260507141938 12 158 0.0 0.0 0.00 0.00 0.00 36 1018.8
20260507141440 12 315 0.0 0.0 0.00 0.00 0.00 36 1018.8
20260507140939 12 180 0.0 4.8 0.00 0.00 0.00 36 1018.8
20260507140439 12 90 0.0 0.0 0.00 0.00 0.00 36 1018.8
20260507135939 11 0 0.0 4.8 0.00 0.00 0.00 36 1018.8
20260507135438 10 0 0.0 0.0 0.00 0.00 0.00 37 1018.8
20260507134938 10 0 0.0 4.8 0.00 0.00 0.00 37 1018.8
20260507134440 10 158 0.0 4.8 0.00 0.00 0.00 37 1018.8
20260507133939 10 0 0.0 0.0 0.00 0.00 0.00 37 1018.8
20260507133439 10 0 0.0 0.0 0.00 0.00 0.00 37 1018.8
20260507132939 10 0 0.0 0.0 0.00 0.00 0.00 37 1018.8
20260507132439 9 0 0.0 0.0 0.00 0.00 0.00 37 1018.8
20260507131939 8 0 0.0 0.0 0.00 0.00 0.00 37 1018.8
20260507131439 7 0 0.0 0.0 0.00 0.00 0.00 38 1018.8
20260507130940 7 0 0.0 0.0 0.00 0.00 0.00 38 1018.8
20260507130440 6 0 0.0 4.8 0.00 0.00 0.00 38 1018.8
20260507125939 6 0 0.0 4.8 0.00 0.00 0.00 38 1018.8
20260507125439 5 0 0.0 4.8 0.00 0.00 0.00 39 1018.8
20260507124939 5 0 0.0 0.0 0.00 0.00 0.00 39 1018.8
20260507124439 5 0 0.0 0.0 0.00 0.00 0.00 39 1018.8
20260507123940 5 0 0.0 0.0 0.00 0.00 0.00 39 1018.8
20260507123440 3 0 0.0 0.0 0.00 0.00 0.00 39 1018.8
20260507122939 3 0 0.0 0.0 0.00 0.00 0.00 40 1018.8
20260507122438 2 0 0.0 0.0 0.00 0.00 0.00 40 1018.8
20260507121938 2 0 0.0 0.0 0.00 0.00 0.00 40 1018.8
20260507121440 2 0 0.0 0.0 0.00 0.00 0.00 40 1018.8
20260507120939 2 23 0.0 0.0 0.00 0.00 0.00 40 1018.8
20260507120438 2 90 0.0 0.0 0.00 0.00 0.00 40 1018.8
20260507115938 2 113 0.0 0.0 0.00 0.00 0.00 40 1018.8
20260507115439 2 23 0.0 0.0 0.00 0.00 0.00 40 1018.8
20260507114939 2 0 0.0 4.8 0.00 0.00 0.00 40 1018.8
20260507114439 2 0 0.0 0.0 0.00 0.00 0.00 40 1018.8
20260507113940 2 0 0.0 4.8 0.00 0.00 0.00 40 1018.8
20260507113439 2 0 0.0 0.0 0.00 0.00 0.00 40 1018.8
20260507112939 2 0 0.0 0.0 0.00 0.00 0.00 40 1018.8
20260507112438 2 0 0.0 0.0 0.00 0.00 0.00 40 1018.8
20260507111938 2 0 0.0 0.0 0.00 0.00 0.00 40 1018.8
20260507111440 1 23 0.0 0.0 0.00 0.00 0.00 40 1018.8
20260507110939 1 23 0.0 0.0 0.00 0.00 0.00 40 1018.8
20260507110439 1 23 0.0 0.0 0.00 0.00 0.00 40 1018.8
20260507105938 1 23 0.0 0.0 0.00 0.00 0.00 40 1018.8
20260507105439 1 23 0.0 0.0 0.00 0.00 0.00 40 1018.8
20260507104939 1 23 0.0 0.0 0.00 0.00 0.00 41 1018.8
20260507104439 1 23 0.0 0.0 0.00 0.00 0.00 41 1018.8
20260507103940 1 23 0.0 0.0 0.00 0.00 0.00 41 1018.8
20260507103440 2 23 0.0 0.0 0.00 0.00 0.00 40 1018.8
20260507102940 1 23 0.0 0.0 0.00 0.00 0.00 40 1018.8
20260507102439 1 23 0.0 0.0 0.00 0.00 0.00 41 1018.8
20260507101939 1 23 0.0 0.0 0.00 0.00 0.00 41 1018.8
20260507101439 1 45 0.0 0.0 0.00 0.00 0.00 41 1018.8
20260507100938 1 0 0.0 0.0 0.00 0.00 0.00 41 1018.8
20260507100438 1 0 0.0 0.0 0.00 0.00 0.00 41 1018.8
20260507095938 1 0 0.0 0.0 0.00 0.00 0.00 41 1018.8
20260507095439 1 0 0.0 0.0 0.00 0.00 0.00 41 1018.8
20260507094939 1 0 0.0 0.0 0.00 0.00 0.00 41 1018.8
20260507094439 1 0 0.0 0.0 0.00 0.00 0.00 41 1018.8
20260507093940 1 0 0.0 0.0 0.00 0.00 0.00 41 1018.8
20260507093439 1 0 0.0 0.0 0.00 0.00 0.00 42 1018.8
20260507092939 1 0 0.0 0.0 0.00 0.00 0.00 41 1018.8
20260507092438 1 0 0.0 0.0 0.00 0.00 0.00 42 1018.8
20260507091938 1 0 0.0 0.0 0.00 0.00 0.00 42 1018.8
20260507091438 1 0 0.0 0.0 0.00 0.00 0.00 42 1018.8
20260507090939 0 23 3.2 4.8 0.00 0.00 0.00 43 1018.8
20260507090439 0 0 0.0 4.8 0.00 0.00 0.00 44 1018.8
20260507085939 0 23 0.0 0.0 0.00 0.00 0.00 44 1018.8
20260507085439 0 23 0.0 4.8 0.00 0.00 0.00 46 1018.8
20260507084939 0 0 0.0 4.8 0.00 0.00 0.00 46 1018.8
20260507084438 0 23 0.0 4.8 0.00 0.00 0.00 47 1018.8
20260507083939 0 23 0.0 4.8 0.00 0.00 0.00 48 1018.8
20260507083439 0 23 0.0 4.8 0.00 0.00 0.00 50 1018.8
20260507082927 0 23 0.0 0.0 0.00 0.00 0.00 51 1019.3
20260507082428 0 0 0.0 4.8 0.00 0.00 0.00 56 1019.8
20260507081928 0 0 0.0 0.0 0.00 0.00 0.00 59 1019.8
20260507081428 0 0 0.0 0.0 0.00 0.00 0.00 64 1019.8
20260507080511 0 0 0.0 0.0 0.00 0.00 0.00 71 1019.8
20260507080011 0 113 0.0 0.0 0.00 0.00 0.00 77 1019.8
20260507074247 -1 113 0.0 0.0 0.00 0.00 0.00 80 1019.8
20260507073746 -1 113 0.0 0.0 0.00 0.00 0.00 81 1019.8
20260507073246 -1 135 0.0 0.0 0.00 0.00 0.00 82 1019.8
20260507072747 -1 135 0.0 0.0 0.00 0.00 0.00 82 1019.8
20260507072248 -1 135 0.0 0.0 0.00 0.00 0.00 83 1019.8
20260507071253 -1 135 0.0 0.0 0.00 0.00 0.00 83 1019.8
20260507070754 -1 135 0.0 0.0 0.00 0.00 0.00 83 1019.8
20260507070254 -1 135 0.0 0.0 0.00 0.00 0.00 82 1019.8
20260507065754 -1 135 0.0 0.0 0.00 0.00 0.00 82 1019.8
20260507065254 -1 135 0.0 0.0 0.00 0.00 0.00 82 1019.8
20260507064754 -1 135 0.0 0.0 0.00 0.00 0.00 82 1019.8
20260507064253 -1 135 0.0 0.0 0.00 0.00 0.00 81 1019.8
20260507063754 -1 135 0.0 0.0 0.00 0.00 0.00 81 1019.8
20260507063254 -1 135 0.0 0.0 0.00 0.00 0.00 82 1019.8
20260507062754 0 135 0.0 0.0 0.00 0.00 0.00 82 1019.8
20260507062253 0 135 0.0 0.0 0.00 0.00 0.00 82 1019.8
20260507061754 0 135 0.0 0.0 0.00 0.00 0.00 82 1019.8
20260507061254 0 135 0.0 0.0 0.00 0.00 0.00 81 1019.8
20260507060755 0 135 0.0 0.0 0.00 0.00 0.00 81 1019.8
20260507060254 0 135 0.0 0.0 0.00 0.00 0.00 81 1019.8
20260507055754 0 135 0.0 0.0 0.00 0.00 0.00 81 1019.8
20260507055253 0 135 0.0 0.0 0.00 0.00 0.00 82 1019.8
20260507054753 0 135 0.0 0.0 0.00 0.00 0.00 82 1019.8
20260507054253 0 135 0.0 0.0 0.00 0.00 0.00 82 1019.8
20260507053754 0 135 0.0 0.0 0.00 0.00 0.00 82 1019.8
20260507053254 0 135 0.0 0.0 0.00 0.00 0.00 82 1019.8
20260507052754 0 135 0.0 0.0 0.00 0.00 0.00 81 1019.8
20260507052254 0 135 0.0 0.0 0.00 0.00 0.00 81 1019.8
20260507051754 0 135 0.0 0.0 0.00 0.00 0.00 80 1019.8
20260507051254 0 135 0.0 0.0 0.00 0.00 0.00 80 1019.8
20260507050753 0 135 0.0 0.0 0.00 0.00 0.00 78 1019.8
20260507050253 0 135 0.0 0.0 0.00 0.00 0.00 78 1019.8
20260507045754 0 135 0.0 0.0 0.00 0.00 0.00 76 1019.8
20260507045255 0 135 0.0 0.0 0.00 0.00 0.00 76 1019.8
20260507044755 0 135 0.0 0.0 0.00 0.00 0.00 76 1019.8
20260507044255 0 135 0.0 0.0 0.00 0.00 0.00 76 1019.8
20260507043753 0 135 0.0 0.0 0.00 0.00 0.00 76 1019.8
20260507043253 0 135 0.0 0.0 0.00 0.00 0.00 76 1019.8
20260507042753 0 135 0.0 0.0 0.00 0.00 0.00 76 1019.8
20260507042254 0 113 0.0 4.8 0.00 0.00 0.00 76 1019.8
20260507041754 0 113 0.0 0.0 0.00 0.00 0.00 77 1019.8
20260507041254 0 113 0.0 0.0 0.00 0.00 0.00 77 1019.8
20260507040753 0 113 0.0 0.0 0.00 0.00 0.00 76 1019.8
20260507040253 0 113 0.0 4.8 0.00 0.00 0.00 76 1019.8
20260507035755 0 135 0.0 0.0 0.00 0.00 0.00 74 1019.8
20260507035254 0 135 0.0 0.0 0.00 0.00 0.00 73 1019.8
20260507034754 0 135 0.0 0.0 0.00 0.00 0.00 72 1019.8
20260507034254 0 113 0.0 4.8 0.00 0.00 0.00 71 1018.8
20260507033754 0 113 0.0 4.8 0.00 0.00 0.00 69 1018.8
20260507033254 0 113 0.0 0.0 0.00 0.00 0.00 68 1018.8
20260507032754 0 113 0.0 4.8 0.00 0.00 0.00 66 1018.8
20260507032254 1 135 0.0 0.0 0.00 0.00 0.00 63 1018.8
20260507031754 1 113 0.0 0.0 0.00 0.00 0.00 62 1018.8
20260507031254 1 113 0.0 0.0 0.00 0.00 0.00 62 1018.8
20260507030754 1 113 0.0 4.8 0.00 0.00 0.00 60 1018.8
20260507030254 1 113 0.0 0.0 0.00 0.00 0.00 59 1018.8
20260507025754 1 113 0.0 0.0 0.00 0.00 0.00 58 1018.8
20260507025254 1 90 0.0 0.0 0.00 0.00 0.00 57 1018.8
20260507024754 1 90 0.0 0.0 0.00 0.00 0.00 56 1018.8
20260507024254 1 90 0.0 0.0 0.00 0.00 0.00 56 1018.8
20260507023753 1 90 0.0 0.0 0.00 0.00 0.00 56 1018.8
20260507023253 1 90 0.0 0.0 0.00 0.00 0.00 55 1018.8
20260507022755 1 90 0.0 0.0 0.00 0.00 0.00 55 1018.8
20260507022254 1 90 0.0 0.0 0.00 0.00 0.00 55 1018.8
20260507021754 1 113 0.0 0.0 0.00 0.00 0.00 54 1018.8
20260507021253 1 113 0.0 0.0 0.00 0.00 0.00 52 1018.8
20260507020754 1 90 0.0 0.0 0.00 0.00 0.00 51 1018.8
20260507020254 2 90 0.0 0.0 0.00 0.00 0.00 50 1018.8
20260507015754 2 90 0.0 0.0 0.00 0.00 0.00 50 1018.8
20260507015253 2 90 0.0 0.0 0.00 0.00 0.00 50 1018.8
20260507014755 2 90 0.0 0.0 0.00 0.00 0.00 49 1018.8
20260507014254 2 90 0.0 0.0 0.00 0.00 0.00 49 1018.8
20260507013753 2 90 0.0 0.0 0.00 0.00 0.00 48 1018.8
20260507013253 2 113 0.0 0.0 0.00 0.00 0.00 47 1018.8
20260507012753 2 113 0.0 0.0 0.00 0.00 0.00 47 1018.8
20260507012254 3 135 0.0 0.0 0.00 0.00 0.00 46 1018.8
20260507011754 3 158 0.0 8.0 0.00 0.00 0.00 45 1018.8
20260507011253 3 113 4.8 14.5 0.00 0.00 0.00 44 1018.8
20260507010754 3 135 1.6 4.8 0.00 0.00 0.00 43 1018.8
20260507010254 3 135 0.0 4.8 0.00 0.00 0.00 43 1018.8
20260507005754 4 113 0.0 4.8 0.00 0.00 0.00 42 1018.8
20260507005255 4 315 0.0 0.0 0.00 0.00 0.00 42 1018.8
20260507004754 4 68 0.0 0.0 0.00 0.00 0.00 42 1018.8
20260507004254 4 23 0.0 0.0 0.00 0.00 0.00 42 1018.8
20260507003753 3 180 0.0 0.0 0.00 0.00 0.00 42 1018.8
20260507003253 3 158 0.0 4.8 0.00 0.00 0.00 42 1018.8
20260507002753 3 135 0.0 8.0 0.00 0.00 0.00 42 1018.8
20260507002254 3 270 0.0 0.0 0.00 0.00 0.00 42 1018.8
20260507001753 3 113 0.0 4.8 0.00 0.00 0.00 42 1018.8
20260507001253 3 135 0.0 4.8 0.00 0.00 0.00 42 1018.8
20260507000754 3 135 0.0 0.0 0.00 0.00 0.00 42 1018.8
20260507000256 4 113 0.0 4.8 0.00 0.00 0.00 42 1018.8
20260506235756 4 158 0.0 4.8 0.00 0.00 0.00 41 1018.8
20260506235255 4 135 0.0 8.0 0.00 0.00 0.00 41 1018.8
20260506234755 5 158 0.0 0.0 0.00 0.00 0.00 41 1018.8
20260506234254 5 135 0.0 0.0 0.00 0.00 0.00 40 1018.8
20260506233754 5 113 0.0 9.7 0.00 0.00 0.00 40 1018.8
20260506233256 5 113 0.0 0.0 0.00 0.00 0.00 40 1018.8
20260506232756 5 113 0.0 0.0 0.00 0.00 0.00 40 1017.8
20260506232255 5 113 0.0 0.0 0.00 0.00 0.00 40 1017.8
20260506231754 5 113 0.0 0.0 0.00 0.00 0.00 40 1017.8
20260506231254 5 113 0.0 0.0 0.00 0.00 0.00 40 1018.6
20260506230755 5 113 0.0 0.0 0.00 0.00 0.00 41 1018.8
20260506230256 4 90 0.0 0.0 0.00 0.00 0.00 40 1018.8
20260506225755 5 68 0.0 0.0 0.00 0.00 0.00 40 1018.8
20260506225254 5 68 0.0 0.0 0.00 0.00 0.00 40 1018.8
20260506224754 5 0 0.0 0.0 0.00 0.00 0.00 40 1018.8
20260506224256 5 45 0.0 0.0 0.00 0.00 0.00 40 1018.8
20260506223755 5 315 0.0 0.0 0.00 0.00 0.00 40 1018.8
20260506223255 5 338 0.0 0.0 0.00 0.00 0.00 40 1018.8
20260506222754 5 0 0.0 0.0 0.00 0.00 0.00 40 1018.8
20260506222255 4 0 0.0 0.0 0.00 0.00 0.00 41 1018.8
20260506221755 3 0 0.0 0.0 0.00 0.00 0.00 40 1018.8
20260506221255 4 0 0.0 0.0 0.00 0.00 0.00 40 1018.8
20260506220756 4 23 0.0 0.0 0.00 0.00 0.00 41 1018.8
20260506220256 3 23 0.0 0.0 0.00 0.00 0.00 41 1018.8
20260506215755 3 23 0.0 0.0 0.00 0.00 0.00 41 1018.8
20260506215255 2 45 0.0 0.0 0.00 0.00 0.00 42 1018.8
20260506214755 2 0 0.0 0.0 0.00 0.00 0.00 42 1018.8
20260506214255 2 0 0.0 0.0 0.00 0.00 0.00 43 1018.8
20260506213755 2 0 0.0 4.8 0.00 0.00 0.00 42 1018.8
20260506213255 2 45 0.0 0.0 0.00 0.00 0.00 44 1018.8
20260506212755 2 0 4.8 9.7 0.00 0.00 0.00 47 1018.8
20260506212256 2 0 1.6 4.8 0.00 0.00 0.00 45 1018.8
20260506211756 2 0 3.2 9.7 0.00 0.00 0.00 46 1018.8
20260506211256 2 45 4.8 4.8 0.00 0.00 0.00 46 1018.8
20260506210754 2 0 3.2 11.3 0.00 0.00 0.00 45 1018.8
20260506210254 2 0 3.2 11.3 0.00 0.00 0.00 45 1018.8
20260506205754 2 338 1.6 9.7 0.00 0.00 0.00 44 1017.8
20260506205255 2 0 4.8 9.7 0.00 0.00 0.00 44 1017.8
20260506204754 2 0 1.6 9.7 0.00 0.00 0.00 46 1017.8
20260506204254 2 0 0.0 9.7 0.00 0.00 0.00 47 1018.8
20260506203755 1 0 0.0 9.7 0.00 0.00 0.00 46 1018.8
20260506203255 1 338 0.0 9.7 0.00 0.00 0.00 49 1018.8
20260506202755 1 0 4.8 9.7 0.00 0.00 0.00 49 1018.8
20260506202256 1 338 3.2 9.7 0.00 0.00 0.00 47 1018.8
20260506201755 1 0 4.8 8.0 0.00 0.00 0.00 52 1018.8
20260506201255 1 0 4.8 9.7 0.00 0.00 0.00 50 1018.8
20260506200754 1 0 8.0 9.7 0.00 0.00 0.00 51 1018.8
20260506200254 1 0 8.0 9.7 0.00 0.00 0.00 51 1018.8
20260506195756 1 23 4.8 9.7 0.00 0.00 0.00 52 1018.8
20260506195255 1 0 4.8 9.7 0.00 0.00 0.00 50 1018.8
20260506194755 1 0 4.8 9.7 0.00 0.00 0.00 51 1018.8
20260506194255 1 0 4.8 8.0 0.00 0.00 0.00 51 1018.8
20260506193756 1 23 1.6 9.7 0.00 0.00 0.00 51 1018.8
20260506193256 1 338 0.0 8.0 0.00 0.00 0.00 51 1018.8
20260506192756 1 0 8.0 9.7 0.00 0.00 0.00 52 1018.8
20260506192254 2 0 4.8 9.7 0.00 0.00 0.00 51 1018.8
20260506191754 1 23 0.0 8.0 0.00 0.00 0.00 51 1018.8
20260506191256 1 0 0.0 9.7 0.00 0.00 0.00 52 1018.8
20260506190755 1 0 4.8 9.7 0.00 0.00 0.00 52 1018.8
20260506190254 1 23 3.2 9.7 0.00 0.00 0.00 51 1018.8
20260506185754 1 338 1.6 8.0 0.00 0.00 0.00 52 1018.8
20260506185255 1 0 0.0 4.8 0.00 0.00 0.00 52 1018.8
20260506184756 1 0 0.0 4.8 0.00 0.00 0.00 52 1018.8
20260506184256 0 0 0.0 4.8 0.00 0.00 0.00 53 1018.8
20260506183754 0 0 3.2 9.7 0.00 0.00 0.00 52 1018.8
20260506183254 0 0 0.0 4.8 0.00 0.00 0.00 51 1018.8
20260506182754 0 0 0.0 4.8 0.00 0.00 0.00 53 1018.8
20260506182255 1 0 3.2 8.0 0.00 0.00 0.00 53 1018.8
20260506181755 1 338 0.0 0.0 0.00 0.00 0.00 59 1018.8
20260506181254 1 0 0.0 0.0 0.00 0.00 0.00 57 1018.8
20260506180755 1 90 0.0 0.0 0.00 0.00 0.00 56 1018.8
20260506180255 1 68 0.0 0.0 0.00 0.00 0.00 59 1018.8
20260506175755 1 68 0.0 0.0 0.00 0.00 0.00 59 1018.8